DELTA 1 DEB, 7200

Orbit data source: Space-Track

DELTA 1 DEB, 7200 is space debris in SSO originally from a launch on Tue, 06 Nov 1973 UTC launched from the Air Force Western Test Range (AFWTR). Debris objects in space refer to the collection of defunct objects orbiting the Earth. Examples of debris include non-operational satellites, rocket bodies, and fragments generated from explosions, collisions, or faulty payload assembly.

Loading next visibility...
Identifier
7200, 1973-086FJ
Orbit
SSO
Country
Flag of USUS
Related business
Manufacturer
Unknown
Mission
Spacecraft
Bus & Motor
Unknown
Mass
Unknown
Launch date (UTC)
1973-11-06 (52 years ago)
Launch vehicle
Unknown
Launch site
Air Force Western Test Range (AFWTR)
Object type
Payload
Rocket body
Debris
Shape & HBR
Unknown shape, 0.1 m
Radar Cross Section
Small (<0.1 m²)

Expand to show TLE details & history
Last TLE update: 15 hours ago

TLE from 15 hours ago
0 DELTA 1 DEB
1 07200U 73086FJ  25291.94338194 -.00000093  00000-0 -54617-3 0  9993
2 07200 102.3721 284.6825 0300738  41.6157 349.9643 12.01893062273324
Epoch: 2025-10-18T22:38Z
TLE epoch observation values (Epoch: 2025-10-18T22:38:28.199Z)
Latitude
30.2129°
Longitude
-89.90419°
Altitude
1,437.618 km
Speed
7.25 km/s
True Right ascension
18h 29m 31s
True Declination
30° 04' 36"
Sunlit
Object was in daylight at epoch
Visualization orbit readout
Latitude
Unknown
Longitude
Unknown
Altitude
Unknown
Speed
Unknown
Apparent Right ascension
Unknown
Apparent Declination
Unknown
Sunlit
N/A
Visualization observer readout
Local Sidereal Time
08:23:08
Azimuth
Unknown
Elevation
Unknown
Doppler factor
Unknown
Orbital elements
Apogee altitude
1,912.079 km
Perigee altitude
1,428 km
Semi-major axis
8,048.176 km
Eccentricity
0.03007
Inclination
102.3721°
RAAN
284.6825°
Arg. of periapsis
41.6157°
True anomaly
349.34072°
Mean anomaly
349.9643°
Eccentric anomaly
349.65487°
Mean motion
3.00606 °/min
Orbital period
119.76 mins
BSTAR
-0.00054617
Loading maneuver chart data...
Computing Atmospheric mass density...
Loading historical data...
Loading historical data...
Loading historical data...
Loading historical data...
Loading historical data...
Loading historical data...
Loading historical data...

Documentation

Showing up to 5 results
|